QPF
0.00 0.00 0.01 0.01 0.01 0.01 0.01 0.01 0.01 0.01 0.01 0.00 0.00 0.01 0.01 0.00 0.00 0.00 0.00 0.00 0.00 0.00 0.01 0.02 0.02 0.02 0.02 0.01 0.01 0.01 0.01 0.01 0.01 0.01 0.01 0.01 0.01 0.01 0.01 0.01 0.00 0.01 0.02
0.00 0.00 0.01 0.01 0.01 0.02 0.02 0.01 0.01 0.01 0.01 0.01 0.01 0.01 0.01 0.00 0.00 0.00 0.00 0.00 0.00 0.00 0.01 0.02 0.02 0.02 0.01 0.01 0.00 0.00 0.00 0.00 0.01 0.01 0.01 0.01 0.01 0.01 0.01 0.01 0.01 0.02 0.03
0.00 0.00 0.01 0.01 0.01 0.02 0.02 0.02 0.02 0.01 0.01 0.01 0.01 0.01 0.00 0.01 0.00 0.01 0.01 0.01 0.01 0.01 0.01 0.02 0.02 0.01 0.01 0.00 0.00 0.00 0.01 0.01 0.01 0.01 0.00 0.00 0.01 0.01 0.01 0.01 0.02 0.04 0.03
0.00 0.00 0.01 0.01 0.01 0.01 0.02 0.02 0.02 0.02 0.01 0.01 0.01 0.01 0.01 0.01 0.01 0.01 0.01 0.01 0.01 0.01 0.01 0.02 0.01 0.01 0.00 0.00 0.00 0.00 0.01 0.01 0.01 0.00 0.00 0.00 0.01 0.02 0.03 0.03 0.03 0.02 0.01
0.00 0.00 0.01 0.01 0.01 0.01 0.02 0.02 0.03 0.03 0.02 0.02 0.02 0.01 0.01 0.01 0.02 0.02 0.02 0.02 0.01 0.01 0.01 0.01 0.00 0.00 0.00 0.00 0.00 0.01 0.01 0.01 0.00 0.00 0.00 0.00 0.01 0.03 0.03 0.02 0.01 0.01 0.01
0.00 0.00 0.01 0.01 0.01 0.02 0.02 0.03 0.04 0.05 0.05 0.04 0.03 0.02 0.02 0.02 0.02 0.03 0.02 0.01 0.01 0.01 0.01 0.00 0.00 0.00 0.00 0.00 0.00 0.01 0.01 0.00 0.00 0.00 0.00 0.00 0.01 0.02 0.01 0.01 0.01 0.01 0.01
0.01 0.00 0.01 0.01 0.02 0.02 0.02 0.03 0.04 0.05 0.06 0.06 0.06 0.05 0.04 0.03 0.03 0.03 0.02 0.01 0.01 0.01 0.01 0.00 0.00 0.00 0.00 0.00 0.00 0.01 0.01 0.00 0.00 0.00 0.00 0.00 0.01 0.01 0.01 0.01 0.01 0.01 0.01
0.01 0.01 0.01 0.01 0.02 0.03 0.03 0.03 0.04 0.06 0.07 0.07 0.07 0.06 0.05 0.05 0.04 0.03 0.02 0.02 0.01 0.01 0.01 0.00 0.00 0.00 0.00 0.00 0.00 0.00 0.00 0.00 0.00 0.00 0.00 0.00 0.01 0.02 0.01 0.01 0.01 0.01 0.01
0.02 0.01 0.01 0.02 0.03 0.04 0.05 0.05 0.06 0.07 0.08 0.08 0.08 0.07 0.06 0.05 0.05 0.04 0.02 0.02 0.01 0.01 0.01 0.01 0.00 0.00 0.00 0.00 0.00 0.00 0.00 0.00 0.00 0.00 0.00 0.00 0.01 0.01 0.01 0.01 0.01 0.01 0.01
0.03 0.02 0.02 0.02 0.03 0.04 0.06 0.06 0.06 0.08 0.09 0.09 0.09 0.10 0.08 0.07 0.06 0.05 0.03 0.02 0.01 0.01 0.01 0.01 0.00 0.00 0.00 0.00 0.00 0.00 0.00 0.00 0.00 0.00 0.00 0.00 0.01 0.01 0.01 0.01 0.01 0.01 0.01
0.05 0.04 0.04 0.04 0.03 0.04 0.06 0.06 0.07 0.09 0.11 0.12 0.12 0.12 0.12 0.10 0.08 0.06 0.03 0.01 0.01 0.01 0.01 0.01 0.00 0.00 0.00 0.00 0.00 0.00 0.00 0.00 0.00 0.00 0.00 0.00 0.01 0.01 0.01 0.01 0.01 0.00 0.00
0.06 0.06 0.06 0.05 0.05 0.05 0.07 0.08 0.08 0.09 0.11 0.13 0.13 0.12 0.12 0.11 0.09 0.06 0.03 0.02 0.02 0.01 0.01 0.01 0.00 0.00 0.00 0.00 0.00 0.00 0.00 0.00 0.00 0.00 0.00 0.00 0.01 0.01 0.01 0.01 0.00 0.00 0.00
0.05 0.06 0.07 0.08 0.07 0.07 0.07 0.08 0.07 0.09 0.10 0.12 0.14 0.14 0.13 0.13 0.12 0.09 0.05 0.04 0.03 0.02 0.01 0.01 0.01 0.00 0.00 0.00 0.00 0.00 0.00 0.00 0.00 0.00 0.00 0.00 0.01 0.01 0.01 0.01 0.00 0.00 0.00
0.05 0.05 0.06 0.08 0.10 0.09 0.08 0.08 0.07 0.09 0.10 0.11 0.12 0.13 0.14 0.13 0.11 0.08 0.06 0.03 0.02 0.01 0.00 0.00 0.00 0.00 0.00 0.00 0.00 0.00 0.00 0.00 0.00 0.00 0.00 0.00 0.00 0.01 0.01 0.00 0.00 0.00 0.00
0.04 0.05 0.06 0.08 0.10 0.11 0.09 0.08 0.07 0.08 0.10 0.13 0.14 0.14 0.13 0.12 0.10 0.07 0.06 0.05 0.04 0.01 0.00 0.00 0.00 0.00 0.00 0.00 0.00 0.00 0.00 0.00 0.00 0.00 0.00 0.00 0.00 0.01 0.01 0.00 0.01 0.00 0.00
0.04 0.05 0.07 0.09 0.10 0.12 0.12 0.09 0.07 0.08 0.09 0.12 0.15 0.15 0.14 0.13 0.10 0.08 0.06 0.04 0.04 0.03 0.01 0.00 0.00 0.00 0.00 0.00 0.00 0.00 0.00 0.00 0.00 0.00 0.00 0.00 0.00 0.00 0.01 0.01 0.01 0.00 0.00
0.05 0.05 0.07 0.09 0.12 0.12 0.13 0.11 0.08 0.08 0.10 0.12 0.15 0.16 0.17 0.15 0.13 0.11 0.07 0.05 0.03 0.03 0.01 0.00 0.00 0.00 0.00 0.00 0.00 0.00 0.00 0.00 0.00 0.00 0.00 0.00 0.00 0.00 0.00 0.00 0.01 0.01 0.00
0.06 0.07 0.08 0.10 0.12 0.12 0.11 0.12 0.09 0.08 0.09 0.12 0.17 0.18 0.18 0.18 0.16 0.14 0.10 0.06 0.04 0.03 0.02 0.01 0.00 0.00 0.00 0.00 0.00 0.00 0.00 0.00 0.00 0.00 0.00 0.00 0.00 0.00 0.00 0.00 0.00 0.01 0.00
0.05 0.07 0.09 0.11 0.12 0.13 0.11 0.11 0.09 0.09 0.11 0.14 0.18 0.21 0.20 0.19 0.20 0.18 0.14 0.08 0.05 0.03 0.02 0.01 0.00 0.00 0.00 0.00 0.00 0.00 0.00 0.00 0.00 0.00 0.00 0.00 0.00 0.00 0.00 0.00 0.00 0.01 0.01
0.04 0.06 0.09 0.12 0.14 0.15 0.14 0.12 0.10 0.11 0.11 0.15 0.19 0.22 0.22 0.22 0.21 0.21 0.19 0.14 0.08 0.05 0.03 0.02 0.01 0.00 0.00 0.00 0.00 0.00 0.00 0.00 0.00 0.00 0.00 0.00 0.00 0.00 0.00 0.00 0.00 0.00 0.00
0.06 0.06 0.09 0.13 0.17 0.18 0.17 0.13 0.10 0.11 0.12 0.15 0.19 0.22 0.25 0.25 0.23 0.21 0.20 0.19 0.13 0.07 0.04 0.02 0.01 0.00 0.00 0.00 0.00 0.00 0.00 0.00 0.00 0.00 0.00 0.00 0.00 0.00 0.00 0.00 0.00 0.00 0.00
0.07 0.06 0.09 0.13 0.19 0.21 0.17 0.14 0.10 0.10 0.12 0.14 0.18 0.22 0.24 0.27 0.26 0.23 0.21 0.19 0.17 0.11 0.05 0.03 0.01 0.01 0.00 0.00 0.00 0.00 0.00 0.00 0.00 0.00 0.00 0.00 0.00 0.00 0.00 0.00 0.00 0.00 0.00
0.09 0.08 0.10 0.13 0.18 0.23 0.20 0.17 0.13 0.11 0.14 0.17 0.18 0.20 0.24 0.27 0.28 0.25 0.21 0.19 0.18 0.15 0.09 0.04 0.02 0.01 0.00 0.00 0.00 0.00 0.00 0.00 0.00 0.00 0.00 0.00 0.00 0.00 0.00 0.00 0.00 0.00 0.00
0.10 0.11 0.12 0.13 0.15 0.22 0.21 0.19 0.14 0.10 0.12 0.15 0.17 0.20 0.22 0.27 0.32 0.30 0.25 0.22 0.18 0.16 0.11 0.05 0.02 0.01 0.00 0.00 0.00 0.00 0.00 0.00 0.00 0.00 0.00 0.00 0.00 0.00 0.00 0.00 0.00 0.00 0.00
0.12 0.15 0.15 0.16 0.16 0.18 0.20 0.18 0.15 0.10 0.09 0.14 0.19 0.21 0.23 0.26 0.30 0.33 0.29 0.27 0.23 0.18 0.13 0.07 0.02 0.01 0.00 0.00 0.00 0.00 0.00 0.00 0.00 0.00 0.00 0.00 0.00 0.00 0.00 0.00 0.00 0.00 0.00
0.11 0.17 0.18 0.19 0.18 0.17 0.17 0.16 0.14 0.11 0.10 0.13 0.19 0.22 0.24 0.27 0.30 0.31 0.31 0.26 0.24 0.22 0.16 0.09 0.04 0.01 0.00 0.00 0.00 0.00 0.00 0.00 0.00 0.00 0.00 0.00 0.00 0.00 0.00 0.00 0.00 0.00 0.00
MSLP
1009.78 1009.14 1008.66 1008.38 1008.31 1008.39 1008.55 1008.72 1008.83 1008.85 1008.77 1008.65 1008.53 1008.49 1008.55 1008.73 1009.02 1009.35 1009.70 1010.02 1010.28 1010.49 1010.66 1010.84 1011.04 1011.28 1011.55 1011.84 1012.13 1012.37 1012.57 1012.71 1012.80 1012.87 1012.94 1013.01 1013.11 1013.21 1013.31 1013.40 1013.47 1013.51 1013.55
1009.73 1009.10 1008.62 1008.34 1008.27 1008.36 1008.53 1008.71 1008.85 1008.89 1008.85 1008.77 1008.70 1008.68 1008.76 1008.94 1009.20 1009.51 1009.82 1010.11 1010.34 1010.54 1010.72 1010.91 1011.12 1011.37 1011.65 1011.94 1012.21 1012.43 1012.60 1012.72 1012.81 1012.87 1012.95 1013.04 1013.15 1013.27 1013.40 1013.51 1013.60 1013.67 1013.74
1009.55 1008.94 1008.47 1008.22 1008.17 1008.28 1008.47 1008.68 1008.85 1008.93 1008.94 1008.90 1008.86 1008.87 1008.95 1009.12 1009.35 1009.61 1009.87 1010.11 1010.33 1010.52 1010.71 1010.91 1011.15 1011.43 1011.72 1012.00 1012.26 1012.47 1012.62 1012.73 1012.81 1012.88 1012.97 1013.08 1013.21 1013.36 1013.51 1013.64 1013.77 1013.87 1013.96
1009.30 1008.72 1008.30 1008.08 1008.05 1008.18 1008.39 1008.62 1008.81 1008.92 1008.96 1008.96 1008.95 1008.98 1009.06 1009.20 1009.39 1009.61 1009.83 1010.04 1010.23 1010.43 1010.64 1010.89 1011.16 1011.47 1011.78 1012.07 1012.32 1012.52 1012.66 1012.76 1012.84 1012.92 1013.02 1013.15 1013.30 1013.47 1013.65 1013.81 1013.96 1014.09 1014.21
1009.06 1008.53 1008.15 1007.97 1007.96 1008.10 1008.30 1008.52 1008.69 1008.81 1008.86 1008.88 1008.89 1008.93 1009.01 1009.14 1009.30 1009.49 1009.68 1009.88 1010.08 1010.31 1010.56 1010.85 1011.18 1011.52 1011.86 1012.17 1012.42 1012.60 1012.74 1012.83 1012.91 1012.99 1013.11 1013.25 1013.42 1013.61 1013.81 1013.99 1014.16 1014.32 1014.48
1008.91 1008.43 1008.11 1007.95 1007.94 1008.04 1008.19 1008.35 1008.48 1008.55 1008.59 1008.61 1008.63 1008.69 1008.78 1008.91 1009.07 1009.25 1009.45 1009.66 1009.89 1010.15 1010.47 1010.82 1011.21 1011.60 1011.97 1012.29 1012.55 1012.72 1012.85 1012.93 1013.01 1013.10 1013.22 1013.38 1013.56 1013.77 1013.98 1014.18 1014.37 1014.56 1014.74
1008.91 1008.49 1008.20 1008.04 1007.99 1008.02 1008.08 1008.13 1008.16 1008.16 1008.15 1008.16 1008.19 1008.27 1008.38 1008.54 1008.72 1008.91 1009.13 1009.37 1009.65 1009.97 1010.36 1010.79 1011.24 1011.69 1012.09 1012.43 1012.69 1012.86 1012.97 1013.05 1013.12 1013.21 1013.35 1013.51 1013.71 1013.93 1014.15 1014.36 1014.57 1014.78 1014.98
1009.06 1008.69 1008.43 1008.25 1008.13 1008.04 1007.96 1007.87 1007.77 1007.67 1007.59 1007.57 1007.61 1007.71 1007.86 1008.05 1008.26 1008.49 1008.74 1009.02 1009.35 1009.75 1010.20 1010.71 1011.23 1011.74 1012.19 1012.55 1012.81 1012.98 1013.08 1013.15 1013.23 1013.32 1013.46 1013.64 1013.85 1014.07 1014.30 1014.53 1014.75 1014.97 1015.20
1009.34 1009.02 1008.76 1008.54 1008.33 1008.11 1007.86 1007.60 1007.35 1007.13 1006.98 1006.93 1006.97 1007.09 1007.28 1007.50 1007.75 1008.01 1008.29 1008.62 1009.00 1009.46 1009.98 1010.56 1011.15 1011.72 1012.21 1012.60 1012.88 1013.06 1013.16 1013.23 1013.30 1013.40 1013.55 1013.75 1013.97 1014.21 1014.44 1014.68 1014.91 1015.14 1015.38
1009.69 1009.41 1009.15 1008.87 1008.56 1008.19 1007.78 1007.35 1006.95 1006.62 1006.40 1006.31 1006.34 1006.48 1006.69 1006.95 1007.21 1007.49 1007.80 1008.15 1008.57 1009.08 1009.67 1010.32 1010.99 1011.62 1012.16 1012.59 1012.89 1013.07 1013.19 1013.26 1013.34 1013.46 1013.62 1013.83 1014.07 1014.32 1014.57 1014.81 1015.05 1015.28 1015.53
1010.03 1009.78 1009.52 1009.19 1008.78 1008.28 1007.72 1007.15 1006.62 1006.19 1005.90 1005.77 1005.80 1005.94 1006.16 1006.41 1006.68 1006.96 1007.26 1007.63 1008.08 1008.63 1009.28 1010.00 1010.74 1011.44 1012.04 1012.51 1012.85 1013.06 1013.18 1013.27 1013.36 1013.49 1013.67 1013.89 1014.15 1014.42 1014.68 1014.93 1015.17 1015.40 1015.64
1010.31 1010.09 1009.82 1009.45 1008.96 1008.36 1007.69 1006.99 1006.36 1005.85 1005.51 1005.35 1005.35 1005.47 1005.67 1005.90 1006.15 1006.40 1006.70 1007.06 1007.53 1008.13 1008.83 1009.62 1010.44 1011.21 1011.88 1012.41 1012.79 1013.03 1013.18 1013.27 1013.38 1013.52 1013.71 1013.95 1014.23 1014.51 1014.78 1015.04 1015.27 1015.50 1015.73
1010.48 1010.29 1010.02 1009.62 1009.08 1008.41 1007.65 1006.88 1006.18 1005.61 1005.22 1005.02 1004.98 1005.06 1005.21 1005.40 1005.60 1005.82 1006.09 1006.46 1006.95 1007.59 1008.37 1009.23 1010.13 1010.99 1011.73 1012.32 1012.75 1013.02 1013.19 1013.30 1013.41 1013.56 1013.76 1014.01 1014.30 1014.59 1014.87 1015.13 1015.36 1015.57 1015.78
1010.54 1010.37 1010.10 1009.69 1009.12 1008.41 1007.61 1006.80 1006.06 1005.44 1005.00 1004.74 1004.64 1004.66 1004.75 1004.87 1005.02 1005.20 1005.46 1005.84 1006.37 1007.07 1007.91 1008.87 1009.85 1010.79 1011.61 1012.27 1012.74 1013.05 1013.24 1013.36 1013.48 1013.62 1013.82 1014.07 1014.36 1014.65 1014.94 1015.19 1015.42 1015.61 1015.80
1010.51 1010.35 1010.09 1009.67 1009.09 1008.37 1007.56 1006.73 1005.96 1005.30 1004.81 1004.48 1004.30 1004.23 1004.23 1004.28 1004.37 1004.53 1004.79 1005.20 1005.79 1006.57 1007.50 1008.54 1009.62 1010.64 1011.53 1012.25 1012.77 1013.11 1013.32 1013.46 1013.57 1013.71 1013.89 1014.13 1014.41 1014.70 1014.98 1015.23 1015.44 1015.63 1015.80
1010.43 1010.27 1010.01 1009.60 1009.02 1008.31 1007.50 1006.67 1005.87 1005.17 1004.61 1004.19 1003.90 1003.73 1003.63 1003.60 1003.65 1003.80 1004.10 1004.56 1005.23 1006.10 1007.13 1008.26 1009.42 1010.51 1011.47 1012.23 1012.80 1013.17 1013.40 1013.55 1013.66 1013.79 1013.96 1014.18 1014.44 1014.72 1014.98 1015.23 1015.43 1015.61 1015.77
1010.33 1010.17 1009.91 1009.50 1008.94 1008.25 1007.45 1006.62 1005.80 1005.05 1004.40 1003.87 1003.46 1003.15 1002.95 1002.85 1002.87 1003.03 1003.37 1003.92 1004.68 1005.65 1006.77 1007.99 1009.21 1010.37 1011.37 1012.18 1012.78 1013.19 1013.44 1013.61 1013.73 1013.85 1014.01 1014.22 1014.45 1014.71 1014.95 1015.18 1015.39 1015.56 1015.71
1010.25 1010.08 1009.81 1009.42 1008.88 1008.21 1007.44 1006.60 1005.76 1004.94 1004.19 1003.53 1002.98 1002.55 1002.23 1002.07 1002.06 1002.24 1002.65 1003.28 1004.14 1005.20 1006.40 1007.68 1008.96 1010.15 1011.18 1012.02 1012.65 1013.10 1013.40 1013.60 1013.75 1013.89 1014.04 1014.23 1014.44 1014.67 1014.90 1015.11 1015.30 1015.47 1015.63
1010.19 1010.01 1009.74 1009.35 1008.84 1008.21 1007.46 1006.63 1005.76 1004.88 1004.02 1003.23 1002.53 1001.96 1001.53 1001.29 1001.27 1001.47 1001.94 1002.66 1003.60 1004.74 1006.00 1007.32 1008.62 1009.82 1010.86 1011.72 1012.39 1012.89 1013.25 1013.51 1013.70 1013.87 1014.04 1014.23 1014.42 1014.62 1014.81 1015.00 1015.19 1015.35 1015.52
1010.16 1009.96 1009.69 1009.32 1008.84 1008.24 1007.53 1006.72 1005.83 1004.89 1003.93 1003.01 1002.17 1001.45 1000.92 1000.61 1000.55 1000.78 1001.29 1002.07 1003.09 1004.27 1005.56 1006.89 1008.18 1009.37 1010.41 1011.28 1011.99 1012.55 1012.98 1013.32 1013.59 1013.82 1014.02 1014.20 1014.38 1014.55 1014.71 1014.87 1015.04 1015.20 1015.37
1010.12 1009.91 1009.63 1009.28 1008.84 1008.30 1007.64 1006.86 1005.97 1004.99 1003.95 1002.91 1001.94 1001.10 1000.46 1000.07 999.98 1000.21 1000.75 1001.57 1002.61 1003.82 1005.11 1006.41 1007.66 1008.82 1009.84 1010.73 1011.47 1012.10 1012.62 1013.05 1013.41 1013.71 1013.96 1014.16 1014.33 1014.47 1014.60 1014.73 1014.87 1015.02 1015.20
1010.04 1009.82 1009.55 1009.22 1008.82 1008.34 1007.75 1007.03 1006.16 1005.16 1004.08 1002.95 1001.87 1000.92 1000.18 999.72 999.59 999.79 1000.34 1001.16 1002.21 1003.40 1004.65 1005.91 1007.11 1008.22 1009.21 1010.10 1010.88 1011.57 1012.18 1012.71 1013.17 1013.55 1013.86 1014.09 1014.25 1014.37 1014.47 1014.56 1014.67 1014.82 1014.99
1009.92 1009.68 1009.40 1009.10 1008.75 1008.34 1007.83 1007.19 1006.37 1005.40 1004.30 1003.13 1001.98 1000.95 1000.12 999.59 999.39 999.56 1000.08 1000.88 1001.90 1003.05 1004.25 1005.44 1006.57 1007.62 1008.58 1009.45 1010.26 1011.00 1011.69 1012.32 1012.87 1013.33 1013.70 1013.96 1014.14 1014.24 1014.31 1014.37 1014.46 1014.59 1014.76
1009.74 1009.47 1009.19 1008.90 1008.61 1008.27 1007.86 1007.30 1006.58 1005.67 1004.59 1003.42 1002.23 1001.13 1000.24 999.64 999.39 999.50 999.97 1000.73 1001.69 1002.78 1003.92 1005.03 1006.09 1007.07 1007.98 1008.83 1009.65 1010.43 1011.18 1011.87 1012.50 1013.04 1013.46 1013.76 1013.95 1014.06 1014.12 1014.16 1014.23 1014.35 1014.52
1009.51 1009.21 1008.91 1008.63 1008.38 1008.12 1007.80 1007.35 1006.73 1005.91 1004.90 1003.75 1002.56 1001.44 1000.50 999.84 999.52 999.56 999.97 1000.66 1001.57 1002.59 1003.65 1004.69 1005.67 1006.59 1007.44 1008.26 1009.06 1009.85 1010.63 1011.37 1012.06 1012.64 1013.11 1013.46 1013.68 1013.81 1013.87 1013.92 1013.99 1014.11 1014.29
1009.26 1008.92 1008.59 1008.31 1008.09 1007.89 1007.66 1007.33 1006.82 1006.11 1005.18 1004.09 1002.93 1001.80 1000.83 1000.11 999.73 999.70 1000.03 1000.65 1001.48 1002.43 1003.42 1004.39 1005.30 1006.15 1006.96 1007.73 1008.50 1009.28 1010.05 1010.81 1011.52 1012.14 1012.65 1013.04 1013.31 1013.48 1013.58 1013.66 1013.75 1013.88 1014.08
Thickness
5780 5783 5784 5783 5782 5781 5781 5780 5779 5778 5777 5775 5774 5773 5772 5770 5769 5767 5765 5763 5761 5760 5758 5756 5755 5753 5751 5749 5747 5745 5743 5742 5740 5739 5737 5736 5734 5732 5730 5728 5726 5725 5723
5782 5781 5780 5779 5778 5777 5777 5776 5775 5774 5773 5772 5771 5770 5769 5767 5766 5764 5762 5760 5758 5756 5755 5753 5751 5750 5747 5746 5744 5742 5740 5738 5736 5735 5733 5732 5730 5728 5726 5724 5722 5721 5719
5778 5778 5776 5775 5774 5773 5773 5772 5771 5770 5769 5768 5767 5766 5765 5764 5762 5761 5759 5757 5755 5753 5751 5750 5748 5746 5744 5742 5740 5738 5736 5734 5732 5730 5729 5728 5726 5724 5722 5720 5718 5716 5715
5773 5773 5772 5771 5770 5769 5769 5768 5767 5766 5765 5764 5763 5762 5761 5760 5759 5757 5755 5754 5752 5750 5747 5745 5744 5741 5740 5738 5736 5735 5732 5730 5728 5726 5725 5723 5722 5720 5718 5716 5713 5712 5710
5766 5767 5766 5765 5765 5765 5764 5764 5762 5761 5760 5760 5759 5758 5757 5755 5754 5753 5751 5750 5748 5746 5743 5741 5739 5737 5735 5734 5733 5731 5728 5726 5723 5722 5720 5719 5718 5716 5714 5711 5709 5707 5704
5757 5760 5760 5760 5760 5760 5759 5759 5758 5757 5756 5755 5754 5753 5752 5751 5750 5748 5747 5746 5744 5741 5739 5737 5735 5733 5731 5730 5729 5727 5724 5721 5719 5717 5716 5715 5713 5712 5709 5706 5704 5701 5699
5747 5751 5753 5754 5754 5754 5753 5753 5753 5753 5752 5751 5750 5749 5748 5747 5745 5744 5742 5741 5739 5737 5735 5733 5731 5729 5728 5726 5724 5722 5720 5717 5715 5713 5712 5710 5709 5707 5705 5701 5699 5696 5694
5738 5741 5744 5745 5746 5747 5747 5747 5747 5747 5747 5746 5745 5744 5743 5742 5740 5739 5737 5736 5734 5732 5730 5729 5727 5725 5724 5722 5720 5718 5715 5713 5710 5709 5707 5706 5704 5702 5700 5697 5694 5691 5689
5728 5731 5734 5736 5738 5738 5739 5740 5740 5740 5740 5740 5739 5739 5738 5737 5735 5734 5732 5731 5729 5727 5726 5724 5722 5721 5719 5717 5715 5713 5711 5709 5706 5704 5703 5701 5700 5698 5695 5692 5689 5686 5684
5717 5720 5723 5726 5729 5730 5731 5732 5733 5733 5734 5734 5733 5733 5733 5732 5730 5729 5727 5726 5724 5723 5721 5719 5718 5716 5714 5713 5711 5709 5707 5704 5702 5700 5698 5697 5695 5693 5690 5687 5684 5681 5678
5704 5708 5713 5716 5719 5721 5722 5724 5725 5726 5726 5727 5727 5726 5726 5725 5724 5723 5722 5721 5719 5717 5716 5714 5713 5711 5710 5708 5706 5704 5702 5699 5698 5696 5694 5692 5690 5688 5685 5682 5679 5676 5673
5691 5697 5702 5706 5708 5711 5713 5714 5716 5717 5718 5719 5719 5720 5719 5718 5718 5717 5716 5715 5714 5712 5710 5709 5707 5706 5704 5703 5701 5699 5697 5694 5693 5691 5689 5687 5685 5683 5680 5677 5674 5671 5668
5680 5685 5690 5695 5698 5701 5703 5704 5706 5708 5709 5711 5712 5712 5712 5711 5710 5710 5709 5708 5707 5706 5704 5703 5702 5700 5699 5697 5696 5694 5691 5689 5687 5686 5684 5682 5680 5678 5675 5672 5669 5665 5662
5668 5674 5679 5683 5687 5690 5692 5695 5696 5698 5700 5702 5704 5705 5705 5704 5703 5703 5702 5702 5701 5700 5698 5697 5695 5694 5693 5692 5691 5689 5686 5684 5682 5680 5679 5677 5675 5672 5670 5666 5663 5660 5657
5655 5661 5666 5671 5675 5678 5681 5684 5687 5689 5691 5693 5695 5697 5698 5697 5697 5697 5696 5695 5695 5694 5693 5691 5689 5688 5686 5686 5685 5683 5681 5679 5677 5675 5673 5672 5669 5667 5664 5661 5658 5654 5651
5642 5648 5654 5658 5663 5666 5668 5672 5676 5679 5682 5684 5686 5689 5690 5691 5691 5691 5691 5690 5689 5689 5688 5686 5684 5682 5681 5680 5679 5678 5676 5674 5672 5670 5668 5666 5663 5661 5658 5656 5652 5649 5645
5629 5635 5640 5644 5649 5652 5655 5659 5664 5669 5671 5674 5677 5680 5682 5683 5684 5684 5685 5685 5684 5684 5683 5681 5678 5676 5675 5674 5673 5672 5671 5669 5667 5665 5663 5661 5658 5655 5653 5650 5647 5643 5640
5615 5620 5626 5632 5634 5638 5642 5645 5650 5656 5660 5664 5668 5671 5674 5676 5678 5677 5679 5679 5679 5678 5676 5675 5673 5671 5669 5667 5666 5666 5665 5663 5662 5660 5657 5655 5652 5650 5647 5644 5641 5637 5634
5602 5607 5612 5617 5621 5624 5628 5632 5637 5643 5649 5653 5658 5662 5666 5668 5670 5671 5672 5673 5674 5673 5671 5670 5668 5667 5664 5662 5660 5658 5658 5657 5656 5654 5652 5650 5647 5644 5641 5638 5635 5631 5628
5591 5595 5600 5605 5608 5610 5614 5617 5623 5629 5636 5642 5647 5653 5657 5660 5662 5664 5666 5667 5668 5667 5666 5665 5662 5661 5659 5657 5655 5651 5650 5651 5650 5649 5647 5645 5642 5639 5636 5632 5629 5625 5621
5580 5583 5589 5593 5596 5598 5600 5604 5609 5616 5624 5630 5637 5643 5648 5652 5654 5657 5660 5660 5662 5662 5662 5661 5657 5655 5652 5651 5646 5641 5640 5642 5643 5642 5641 5639 5637 5634 5630 5627 5623 5619 5615
5570 5573 5577 5582 5585 5588 5590 5595 5600 5606 5613 5621 5627 5633 5639 5644 5646 5649 5653 5655 5655 5656 5657 5655 5654 5650 5648 5647 5643 5637 5633 5632 5635 5637 5635 5633 5631 5629 5625 5622 5618 5614 5609
5560 5563 5568 5572 5577 5580 5583 5586 5590 5593 5601 5608 5616 5623 5630 5635 5638 5642 5647 5649 5650 5651 5652 5651 5650 5649 5645 5641 5641 5638 5631 5630 5629 5629 5629 5628 5625 5622 5620 5616 5612 5608 5603
5552 5556 5560 5564 5569 5573 5576 5578 5581 5587 5594 5602 5609 5616 5621 5627 5631 5636 5640 5642 5644 5645 5647 5647 5646 5645 5643 5638 5635 5635 5634 5633 5627 5622 5621 5621 5619 5616 5614 5611 5607 5602 5598
5545 5547 5552 5557 5562 5566 5570 5572 5575 5580 5588 5594 5600 5606 5613 5617 5623 5629 5633 5636 5638 5640 5641 5642 5641 5639 5639 5638 5635 5631 5628 5626 5624 5621 5617 5614 5611 5610 5608 5605 5601 5597 5592
5540 5541 5546 5550 5555 5560 5563 5566 5570 5574 5580 5585 5592 5598 5605 5609 5616 5623 5627 5630 5633 5635 5636 5638 5637 5635 5635 5635 5633 5630 5627 5624 5620 5617 5613 5608 5605 5603 5601 5598 5594 5591 5586